Stations météo

réclame
Mon MeteoGroup
Rostock-Warnemünde, Allemagne (10170): Température de l'air & dewpoint: 09.09.2019 12:00:00 - 15.09.2019 12:00:00 (CEST)Rostock-Warnemünde, Allemagne (10170): Température de l'air 5cm & Température de l'air -5cm: 09.09.2019 12:00:00 - 15.09.2019 12:00:00 (CEST)Rostock-Warnemünde, Allemagne (10170): Température de l'air -20cm & Température de l'air -100cm: 09.09.2019 12:00:00 - 15.09.2019 12:00:00 (CEST)Rostock-Warnemünde, Allemagne (10170): Vitesse du vent & gusts: 09.09.2019 12:00:00 - 15.09.2019 12:00:00 (CEST)Rostock-Warnemünde, Allemagne (10170): Direction du vent: 09.09.2019 12:00:00 - 15.09.2019 12:00:00 (CEST)Rostock-Warnemünde, Allemagne (10170): reduced air pressure: 09.09.2019 12:00:00 - 15.09.2019 12:00:00 (CEST)Rostock-Warnemünde, Allemagne (10170): visibility: 09.09.2019 12:00:00 - 15.09.2019 12:00:00 (CEST)Rostock-Warnemünde, Allemagne (10170): Ensoleillement: 09.09.2019 12:00:00 - 15.09.2019 12:00:00 (CEST)Rostock-Warnemünde, Allemagne (10170): Quantités de précipitations: 09.09.2019 12:00:00 - 15.09.2019 12:00:00 (CEST)
Date & Time tt [°C] td [°C] tt 5cm [°C] tt -5cm [°C] tt -20cm [°C] tt -100cm [°C] ff [km/h] ff [knt] fx [km/h] fx [knt] dd ppp [hPa] vv [km] sd [min] rr [mm]
15.09.2019 12:00:00 17,2 9,7 18,9 18,1 15,3 17,3 23 12 48 26 W 1016,6 29 44 0,0
15.09.2019 11:00:00 16,6 8,3 18,4 15,8 14,9 17,3 21 11 46 25 WSW 1016,6 27 17 0,0
15.09.2019 10:00:00 15,3 6,5 16,2 14,3 14,6 17,3 22 12 40 22 SW 1016,8 26 22 0,0
15.09.2019 09:00:00 14,1 6,4 14,0 13,0 14,6 17,3 17 9 34 18 SW 1017,7 28 0 0,0
15.09.2019 08:00:00 12,9 6,0 12,2 12,0 14,7 17,3 20 11 29 16 SSW 1018,2 30 0 0,0
15.09.2019 07:00:00 11,7 6,3 10,5 11,9 14,9 17,3 15 8 29 15 SSW 1019,3 31 0 0,0
15.09.2019 06:00:00 11,9 6,5 11,0 12,0 15,1 17,3 16 9 27 15 SSW 1020,4 30 0 0,0
15.09.2019 05:00:00 11,7 6,8 10,8 12,1 15,4 17,3 16 9 27 14 SSW 1021,4 26 0 0,0
15.09.2019 04:00:00 11,6 7,1 10,3 12,3 15,7 17,3 15 8 21 11 SSW 1022,6 29 0 0,0
15.09.2019 03:00:00 11,7 7,1 10,6 12,6 16,0 17,3 13 7 20 11 S 1023,6 27 0 0,0
15.09.2019 02:00:00 11,9 7,1 10,7 12,9 16,3 17,3 11 6 19 11 S 1024,9 27 0 0,0
15.09.2019 01:00:00 12,0 7,1 10,6 13,2 16,7 17,3 14 7 21 11 SSW 1025,5 30 0 0,0
15.09.2019 00:00:00 12,0 7,3 10,4 13,7 17,2 17,3 11 6 16 8 SSW 1026,3 25 0 0,0
14.09.2019 23:00:00 12,5 7,4 11,0 14,3 17,7 17,3 11 6 14 8 S 1027,4 24 0 0,0
14.09.2019 22:00:00 13,1 7,6 11,0 15,0 18,2 17,3 10 6 15 8 SSW 1028,3 25 0 0,0
14.09.2019 21:00:00 13,5 8,0 11,3 16,1 18,8 17,3 10 5 12 7 SSW 1029,0 17 0 0,0
14.09.2019 20:00:00 14,9 7,7 12,5 17,5 19,3 17,3 8 4 13 7 S 1028,9 31 13 0,0
14.09.2019 19:00:00 16,5 7,0 15,5 19,3 19,6 17,4 8 4 22 12 SW 1029,8 37 32 0,0
14.09.2019 18:00:00 16,9 7,0 17,2 21,2 19,7 17,4 16 9 22 12 W 1030,3 34 57 0,0
14.09.2019 17:00:00 16,3 7,4 16,7 21,7 19,6 17,4 16 9 24 13 W 1031,0 35 25 0,0
14.09.2019 16:00:00 16,9 7,8 19,9 23,9 19,2 17,4 20 11 28 15 W 1032,0 31 60 0,0
14.09.2019 15:00:00 16,9 8,8 21,0 23,7 18,5 17,4 19 10 29 15 W 1032,8 16 60 0,0
14.09.2019 14:00:00 16,7 9,2 21,5 22,6 17,7 17,4 20 11 29 16 W 1033,1 13 60 0,0
14.09.2019 13:00:00 16,2 7,5 21,0 20,9 16,9 17,4 19 11 26 14 WNW 1033,5 13 50 0,0
14.09.2019 12:00:00 16,0 9,2 20,8 19,2 16,1 17,4 18 10 27 14 WNW 1033,8 17 53 0,0
14.09.2019 11:00:00 15,4 9,2 17,9 17,0 15,6 17,4 21 11 31 17 WNW 1034,1 31 47 0,0
14.09.2019 10:00:00 15,3 9,6 18,9 15,3 15,2 17,4 25 13 31 17 WNW 1034,0 22 57 0,0
14.09.2019 09:00:00 14,9 8,6 16,8 13,7 15,1 17,4 23 12 30 16 WNW 1033,8 31 39 0,0
14.09.2019 08:00:00 14,6 8,3 14,0 13,1 15,2 17,4 22 12 35 19 WNW 1033,6 28 16 0,0
14.09.2019 07:00:00 14,3 8,7 12,4 12,8 15,4 17,4 21 12 32 17 NW 1033,3 30 0 0,0
14.09.2019 06:00:00 14,4 8,6 12,9 13,1 15,6 17,4 24 13 38 21 NW 1033,3 25 0 0,0
14.09.2019 05:00:00 14,4 9,1 13,5 13,3 15,8 17,4 27 14 37 20 NW 1033,4 26 0 0,0
14.09.2019 04:00:00 14,5 8,0 13,1 13,4 16,1 17,4 29 15 39 21 NW 1033,2 29 0 0,0
14.09.2019 03:00:00 14,6 8,5 13,3 13,8 16,3 17,4 32 17 38 21 NW 1033,4 26 0 0,0
14.09.2019 02:00:00 14,7 8,7 13,2 14,1 16,6 17,4 28 15 41 22 NW 1033,2 28 0 0,0
14.09.2019 01:00:00 14,9 9,0 13,8 14,3 16,9 17,4 35 19 42 23 NNW 1033,3 27 0 0,0
14.09.2019 00:00:00 15,3 8,3 14,0 14,7 17,2 17,4 34 19 48 26 NW 1032,9 30 0 0,0
13.09.2019 23:00:00 15,6 9,8 14,5 15,0 17,6 17,4 34 18 45 25 WNW 1032,4 29 0 0,0
13.09.2019 22:00:00 15,6 10,1 14,3 15,5 18,0 17,4 37 20 45 24 WNW 1032,1 24 0 0,0
13.09.2019 21:00:00 16,2 10,1 15,0 16,2 18,4 17,4 35 19 46 25 WNW 1031,6 25 0 0,0
13.09.2019 20:00:00 16,4 9,0 15,3 17,0 18,8 17,4 36 20 44 24 NW 1030,9 27 0 0,0
13.09.2019 19:00:00 16,6 8,4 15,9 18,5 19,1 17,4 35 19 46 25 NW 1030,4 30 12 0,0
13.09.2019 18:00:00 16,9 9,6 17,0 20,3 19,2 17,4 38 20 46 25 NW 1030,3 21 57 0,0
13.09.2019 17:00:00 17,3 9,2 18,2 21,8 19,1 17,4 34 19 45 25 NW 1030,2 11 60 0,0
13.09.2019 16:00:00 17,4 10,2 19,5 22,1 18,7 17,4 37 20 50 27 WNW 1029,9 6 60 0,0
13.09.2019 15:00:00 17,3 10,0 20,1 21,5 18,3 17,4 36 19 49 26 NW 1029,5 7 60 0,0
13.09.2019 14:00:00 16,9 9,8 19,7 20,3 17,9 17,4 41 22 50 27 WNW 1028,9 11 58 0,0
13.09.2019 13:00:00 17,1 11,6 20,4 19,3 17,5 17,4 38 21 49 26 NW 1028,2 16 52 0,0
13.09.2019 12:00:00 16,6 11,8 19,7 18,5 17,1 17,4 37 20 46 25 NW 1027,5 11 57 0,0
13.09.2019 11:00:00 16,5 13,1 18,6 17,3 16,8 17,4 32 17 43 23 NW 1026,4 22 48 0,0
13.09.2019 10:00:00 16,1 13,0 16,6 16,3 16,8 17,4 35 19 49 27 NW 1025,0 25 10 0,2
13.09.2019 09:00:00 16,3 15,5 16,1 16,6 16,7 17,4 36 20 50 27 WNW 1023,5 3,7 0 1,6
13.09.2019 08:00:00 17,7 14,9 17,6 16,4 16,6 17,3 19 10 41 22 WSW 1022,5 18 0 0,0
13.09.2019 07:00:00 17,6 14,3 17,3 16,1 16,6 17,3 19 11 37 20 SW 1022,2 18 0 0,0
13.09.2019 06:00:00 17,4 13,7 17,0 15,9 16,6 17,3 18 10 36 20 SW 1021,9 22 0 0,0
13.09.2019 05:00:00 16,9 13,2 16,2 15,5 16,7 17,3 17 9 33 18 SW 1022,2 23 0 0,0
13.09.2019 04:00:00 16,0 12,5 14,9 15,1 16,9 17,3 14 8 22 12 SSW 1022,7 23 0 0,0
13.09.2019 03:00:00 14,9 12,1 14,0 15,3 17,0 17,3 10 5 19 11 SSW 1023,4 24 0 0,0
13.09.2019 02:00:00 15,6 11,6 15,2 15,5 17,2 17,3 13 7 21 11 SSW 1023,7 25 0 0,0
13.09.2019 01:00:00 15,2 11,1 14,7 15,5 17,5 17,3 9 5 14 8 S 1024,0 28 0 0,0
13.09.2019 00:00:00 14,8 11,3 13,7 15,6 17,8 17,3 10 5 14 8 SSW 1024,9 29 0 0,0
12.09.2019 23:00:00 15,5 11,4 14,5 16,0 18,2 17,3 11 6 16 9 SSW 1025,1 29 0 0,0
12.09.2019 22:00:00 15,8 11,1 14,8 16,5 18,7 17,3 12 7 25 13 SSW 1025,4 32 0 0,0
12.09.2019 21:00:00 16,9 10,7 15,3 17,4 19,1 17,3 12 7 23 13 SW 1025,5 33 0 0,0
12.09.2019 20:00:00 17,8 10,8 16,4 18,7 19,5 17,3 10 5 26 14 WSW 1025,0 35 22 0,0
12.09.2019 19:00:00 18,8 11,3 17,9 20,6 19,8 17,4 16 9 32 17 WSW 1025,0 34 60 0,0
12.09.2019 18:00:00 19,4 12,5 19,7 22,5 19,7 17,4 19 11 32 17 W 1024,9 34 56 0,0
12.09.2019 17:00:00 19,5 13,1 20,9 23,4 19,4 17,4 18 10 26 14 W 1025,0 32 45 0,0
12.09.2019 16:00:00 18,7 13,0 20,3 23,8 18,8 17,4 16 9 28 15 W 1025,1 26 44 0,0
12.09.2019 15:00:00 19,2 13,2 23,5 23,6 18,2 17,4 20 11 34 18 W 1025,0 18 42 0,0
12.09.2019 14:00:00 19,3 10,1 21,3 21,9 17,6 17,4 18 10 32 18 W 1025,3 33 20 0,0
12.09.2019 13:00:00 19,4 12,4 22,9 20,8 16,9 17,4 17 9 28 15 SW 1025,0 28 14 0,0
12.09.2019 12:00:00 18,2 12,2 20,7 19,4 16,3 17,4 13 7 30 16 SW 1025,0 22 14 0,0
12.09.2019 11:00:00 17,5 12,5 19,5 18,0 15,7 17,4 16 8 30 16 SW 1024,5 26 45 0,0
12.09.2019 10:00:00 16,5 12,7 18,7 15,7 15,3 17,4 16 9 31 17 WSW 1024,1 16 53 0,0
12.09.2019 09:00:00 15,6 13,5 16,3 14,3 15,2 17,4 14 8 29 15 SW 1023,4 10 52 0,0
12.09.2019 08:00:00 14,3 13,0 13,4 13,1 15,3 17,4 14 7 24 13 SW 1022,8 8 26 0,0
12.09.2019 07:00:00 13,7 12,7 12,5 13,0 15,5 17,4 12 7 23 12 SW 1022,0 6 0 0,0
12.09.2019 06:00:00 14,2 12,9 12,9 13,2 15,8 17,4 10 5 26 14 SW 1021,6 7 0 0,0
12.09.2019 05:00:00 14,4 12,7 13,0 13,5 16,0 17,4 12 7 29 15 SW 1021,1 11 0 0,0
12.09.2019 04:00:00 14,8 13,0 13,6 14,1 16,2 17,4 14 7 34 18 SW 1020,8 13 0 0,0
12.09.2019 03:00:00 15,2 13,1 14,7 14,7 16,4 17,4 16 9 32 17 WSW 1020,4 16 0 0,0
12.09.2019 02:00:00 15,1 13,1 14,6 14,9 16,6 17,4 20 11 39 21 SW 1019,5 16 0 0,0
12.09.2019 01:00:00 14,9 12,9 14,6 15,0 16,8 17,4 20 11 44 24 SW 1019,1 22 0 0,0
12.09.2019 00:00:00 14,5 12,6 14,0 15,1 17,0 17,4 17 9 39 21 SW 1018,8 27 0 0,1
11.09.2019 23:00:00 14,6 12,8 13,8 15,3 17,3 17,4 19 11 42 23 SSW 1018,5 13 0 0,0
11.09.2019 22:00:00 16,3 11,3 15,7 15,7 17,6 17,5 18 10 45 24 SW 1018,5 22 0 0,0
11.09.2019 21:00:00 16,6 11,1 15,3 16,4 18,0 17,5 13 7 21 11 SSW 1018,2 28 0 0,3
11.09.2019 20:00:00 16,9 11,2 14,8 17,3 18,3 17,5 9 5 22 12 S 1018,1 14 0 0,2
11.09.2019 19:00:00 18,9 9,5 17,4 18,8 18,6 17,5 15 8 26 14 SSW 1018,2 23 0 0,0
11.09.2019 18:00:00 19,4 9,0 19,1 20,0 18,6 17,5 14 7 31 17 S 1017,9 38 0 0,0
11.09.2019 17:00:00 19,6 8,4 19,8 21,0 18,5 17,5 15 8 37 20 SSW 1018,2 42 0 0,0
11.09.2019 16:00:00 19,9 7,6 20,5 22,2 18,1 17,5 25 14 46 25 SSW 1018,6 23 54 0,0
11.09.2019 15:00:00 19,9 8,6 21,8 22,1 17,5 17,6 22 12 50 27 SSW 1018,7 23 41 0,0
11.09.2019 14:00:00 19,5 8,8 21,4 22,0 16,7 17,6 24 13 44 24 SSW 1019,2 16 58 0,0
11.09.2019 13:00:00 19,2 9,3 21,9 19,7 15,9 17,6 22 12 41 22 SSW 1019,4 9 60 0,0
11.09.2019 12:00:00 17,8 10,0 21,1 18,2 15,1 17,6 17 9 32 17 SW 1019,6 11 59 0,0
11.09.2019 11:00:00 16,6 11,1 19,2 16,1 14,5 17,6 17 9 29 16 SSW 1020,1 20 60 0,0
11.09.2019 10:00:00 14,7 10,5 17,1 14,1 14,1 17,6 16 9 27 14 SSW 1020,1 18 60 0,0
11.09.2019 09:00:00 13,4 10,0 14,9 12,3 14,0 17,6 14 8 22 12 SSW 1019,8 23 60 0,0
11.09.2019 08:00:00 11,9 9,7 10,7 11,2 14,2 17,7 14 8 21 11 SSW 1019,4 23 50 0,0
11.09.2019 07:00:00 11,5 10,2 10,2 11,3 14,4 17,7 14 8 22 12 SSW 1019,1 20 0 0,0
11.09.2019 06:00:00 11,7 10,7 10,5 11,7 14,7 17,7 13 7 20 11 SSW 1018,8 17 0 0,0
11.09.2019 05:00:00 12,2 11,2 11,1 12,1 15,0 17,7 13 7 22 12 SSW 1018,6 21 0 0,0
11.09.2019 04:00:00 13,0 11,8 11,9 12,7 15,2 17,7 13 7 26 14 SW 1018,2 20 0 0,0
11.09.2019 03:00:00 13,7 12,2 12,5 13,3 15,4 17,7 13 7 28 15 SW 1018,1 24 0 0,0
11.09.2019 02:00:00 14,6 12,5 13,7 13,9 15,5 17,7 12 7 34 19 SW 1017,6 32 0 0,0
11.09.2019 01:00:00 15,6 12,4 15,0 14,4 15,6 17,8 23 12 41 22 W 1017,3 35 0 0,0
11.09.2019 00:00:00 15,6 12,5 15,1 14,5 15,7 17,8 19 11 37 20 W 1016,7 35 0 0,0
10.09.2019 23:00:00 15,6 12,8 14,9 14,4 15,8 17,8 19 11 42 23 WSW 1016,1 34 0 0,0
10.09.2019 22:00:00 15,7 12,6 14,6 14,6 15,9 17,8 21 11 43 23 W 1015,5 38 0 0,0
10.09.2019 21:00:00 15,1 13,1 14,1 14,8 16,0 17,8 18 10 41 22 WSW 1015,1 28 0 0,1
10.09.2019 20:00:00 15,0 13,2 14,2 15,0 16,1 17,8 23 12 54 29 W 1014,5 3,7 0 0,0
10.09.2019 19:00:00 16,2 13,0 15,6 15,4 16,2 17,9 36 19 56 31 W 1013,9 26 0 0,0
10.09.2019 18:00:00 16,1 12,2 15,8 15,9 16,2 17,9 33 18 59 32 W 1013,2 36 0 0,0
10.09.2019 17:00:00 16,2 13,6 15,3 16,0 16,1 17,9 35 19 55 30 W 1012,5 22 0 0,2
10.09.2019 16:00:00 17,0 12,7 17,4 16,4 16,0 17,9 34 18 51 28 W 1012,0 33 0 0,0
10.09.2019 15:00:00 16,4 12,7 15,8 16,0 15,8 17,9 21 12 57 31 WSW 1011,4 32 0 0,0
10.09.2019 14:00:00 16,9 12,8 16,6 15,6 15,7 17,9 40 21 60 33 W 1011,3 29 0 0,0
10.09.2019 13:00:00 16,6 12,8 15,8 15,5 15,6 17,9 47 25 63 34 W 1010,7 26 0 0,0
10.09.2019 12:00:00 16,0 13,1 15,2 15,1 15,5 18,0 49 26 67 36 W 1010,3 22 0 0,3
10.09.2019 11:00:00 15,3 12,8 14,3 14,6 15,5 18,0 45 24 65 35 W 1009,8 10 0 0,1
10.09.2019 10:00:00 15,1 13,2 14,2 14,4 15,6 18,0 42 23 62 33 W 1009,5 20 0 2,6
10.09.2019 09:00:00 14,2 12,9 13,6 14,4 15,6 18,0 40 22 64 34 W 1009,3 2,4 0 0,5
10.09.2019 08:00:00 14,9 12,8 13,8 14,5 15,7 18,0 50 27 65 35 WNW 1008,8 19 0 1,2
10.09.2019 07:00:00 14,5 13,3 14,0 14,6 15,8 18,0 52 28 65 35 WNW 1008,5 2,3 0 3,1
10.09.2019 06:00:00 14,4 13,7 14,2 14,8 15,9 18,0 51 27 65 35 WNW 1008,2 1,3 0 4,9
10.09.2019 05:00:00 14,6 14,0 14,5 15,0 16,0 18,0 51 27 64 34 WNW 1007,9 2,9 0 2,0
10.09.2019 04:00:00 15,0 14,4 14,7 15,1 16,0 18,1 49 26 62 33 NW 1008,1 2,5 0 2,4
10.09.2019 03:00:00 15,5 14,4 14,8 15,1 16,0 18,1 22 12 28 15 NW 1008,5 25 0 0,0
10.09.2019 02:00:00 15,0 14,1 14,6 15,1 16,1 18,1 17 9 22 12 NW 1008,5 19 0 0,0
10.09.2019 01:00:00 14,7 14,3 14,4 15,1 16,1 18,1 3 1 9 5 S 1008,9 9 0 0,0
10.09.2019 00:00:00 14,6 14,0 14,3 15,1 16,1 18,1 3 2 7 4 WSW 1008,9 13 0 0,0
09.09.2019 23:00:00 14,6 13,9 14,2 15,1 16,2 18,1 2 1 5 3 SSW 1009,3 17 0 0,2
09.09.2019 22:00:00 14,7 13,6 14,1 15,3 16,3 18,1 7 4 25 14 ENE 1009,4 3,3 0 0,5
09.09.2019 21:00:00 15,3 14,4 14,8 15,3 16,3 18,1 23 13 41 22 NNW 1009,5 5 0 0,7
09.09.2019 20:00:00 15,2 14,3 14,7 15,3 16,4 18,1 35 19 45 24 NW 1009,5 4,1 0 2,2
09.09.2019 19:00:00 15,4 14,5 15,0 15,7 16,4 18,2 29 16 34 19 NNW 1009,7 7 0 0,0
09.09.2019 18:00:00 15,2 14,2 14,7 15,8 16,4 18,2 13 7 25 13 N 1010,0 10 0 0,3
09.09.2019 17:00:00 16,0 14,0 15,2 16,1 16,3 18,2 14 8 38 21 NE 1010,3 12 0 0,0
09.09.2019 16:00:00 15,5 14,0 15,0 15,6 16,3 18,2 34 18 43 23 NNW 1010,5 27 0 0,3
09.09.2019 15:00:00 15,2 14,0 14,7 15,6 16,3 18,2 30 16 37 20 NNW 1011,0 13 0 0,8
09.09.2019 14:00:00 14,6 13,0 14,0 15,5 16,3 18,2 31 17 39 21 N 1011,7 8 0 2,4
09.09.2019 13:00:00 15,3 13,9 14,7 15,9 16,2 18,2 29 16 37 20 N 1011,9 7 0 0,7
09.09.2019 12:00:00 16,0 13,9 15,6 15,8 16,0 18,2 27 15 34 18 N 1012,7 20 0 0,0

tt = Température de l'air
td = dewpoint
tt 5cm = Température de l'air 5cm
tt -5cm = Température de l'air -5cm
tt -20cm = Température de l'air -20cm
tt -100cm = Température de l'air -100cm
ff = Vitesse du vent
fx = gusts
dd = Direction du vent
ppp = reduced air pressure
vv = visibility
sd = Ensoleillement
rr = Quantités de précipitations

stations d'obs. à proximité